sat.trackr.live / text

‹ back to catalog

GSAT-29

NORAD 43698 · 2018-089A

PAYLOAD ACTIVE UNKNOWN

§ Identity

Operator
Country
IND
Launch date
2018-11-14
Launch site
SRILR
Launch vehicle
Mass (kg)
RCS (m²)

Purposes: comms

External: N2YO · Heavens-Above · Gunter

§ Orbital elements

Epoch: 2026-05-25T04:00:15.763104Z

Period
1,436.07 min
Inclination
0.0113°
Eccentricity
0.0003495
Mean motion
1.00273668 rev/d
Perigee alt
35,771.3 km
Apogee alt
35,800.8 km
Semi-major
42,164.2 km
B*
0.0000e+0
RAAN
279.6705°
Arg perigee
135.3135°
Mean anomaly
302.9192°
Rev number
2,755

§ Raw data

GSAT-291 43698U 18089A   26145.16684911  .00000000  00000+0  00000+0 0  99982 43698   0.0113 279.6705 0003495 135.3135 302.9192  1.00273668 27553

JSON: /api/v1/satellites/43698 · /tle

For live sub-satellite position, see the globe view (requires WebGL).

§ Visibility from observer

Set your observer location to see the next 7 days of passes ≥ 10°. The values pass through the URL so the page stays shareable.

No JS? Fill the form by hand. The geolocation button needs JavaScript.